THOR ABLESTAR DEB, 469

Orbit data source: Space-Track

THOR ABLESTAR DEB, 469 is space debris in LEO originally from a launch on Thu, 29 Jun 1961 UTC launched from the Air Force Eastern Test Range (AFETR). Debris objects in space refer to the collection of defunct objects orbiting the Earth. Examples of debris include non-operational satellites, rocket bodies, and fragments generated from explosions, collisions, or faulty payload assembly.

Loading next visibility...
Identifier
469, 1961-015FF
Orbit
LEO
Last TLE update
14 hours ago
Origin
Manufacturer
Unknown
Mission
Spacecraft
Bus & Motor
Unknown
Mass
Unknown
Launch date (UTC)
1961-06-29 (64 years ago)
Launch vehicle
Unknown
Launch site
Air Force Eastern Test Range (AFETR)
Object type
Payload
Rocket body
Debris
Shape & HBR
Unknown
Radar Cross Section
Small (<0.1 m²)

Expand to show TLE details & history

TLE from 14 hours ago
0 THOR ABLESTAR DEB
1 00469U 61015FF  25189.72425087  .00000787  00000-0  30595-3 0  9999
2 00469  66.8342 336.0497 0050703  93.7584 266.9317 14.34264874303747
Epoch: 2025-07-08T17:22Z
TLE epoch observation values (Epoch: 2025-07-08T17:22:55.275Z)
Latitude
-0.00001°
Longitude
148.40425°
Altitude
781.758 km
Speed
7.462 km/s
True Right ascension
22h 24m 11s
True Declination
0° 00' 00"
Sunlit
Object was in full shadow at epoch
Visualization orbit readout
Latitude
58.18352°
Longitude
-169.77677°
Altitude
753.817 km
Speed
7.501 km/s
Apparent Right ascension
04h 43m 00s
Apparent Declination
17° 44' 58"
Sunlit
Object is in daylight
Visualization observer readout
Local Sidereal Time
19:14:20
Azimuth
39.192° NE
Elevation
-22.414°
Doppler factor
1
Orbital elements
Apogee altitude
812.139 km
Perigee altitude
739.593 km
Semi-major axis
7,154.003 km
Eccentricity
0.00507
Inclination
66.8342°
RAAN
336.0497°
Arg. of periapsis
93.7584°
True anomaly
Unknown
Mean anomaly
266.9317°
Eccentric anomaly
Unknown
Mean motion
3.5869 °/min
Orbital period
100.37 mins
BSTAR
0.00030595
Loading maneuver chart data...
Loading SW <> Apogee altitude chart data...

THOR ABLESTAR DEB Visibility forecast

Observer location: undefined°, undefined°

Span
Click to sort rows by Start time (UTC) header in descending order
Start Az.
Max El. time (UTC)
Max El. Az.
Max El.
End time (UTC)
End Az.
6 mins2025-07-09 10:14:54.601Z146.582° SSE2025-07-09 10:17:54.601Z106.03° ESE19.348°2025-07-09 10:20:54.601Z66.071° ENE
8 mins2025-07-09 11:56:54.601Z233.545° WSW2025-07-09 12:00:54.601Z315.812° NNW36.955°2025-07-09 12:04:54.601Z16.357° NNE
5 mins2025-07-09 19:01:54.601Z20.3° NNE2025-07-09 19:03:54.601Z47.925° ENE16.446°2025-07-09 19:06:54.601Z84.558° E
8 mins2025-07-09 20:43:54.601Z324.959° NNW2025-07-09 20:46:54.601Z286.589° WNW42.874°2025-07-09 20:51:54.601Z160.341° S
|